[TLELIST] Archives

 

[TLELIST] Current TLEs

May 18th 2026 PDT

0 HST 1 20580U 90037B 26138.08457181 .00005136 00000-0 16211-3 0 9997 2 20580 28.4749 286.2564 0001786 152.3712 207.6979 15.30409410783956 0 ISS (ZARYA) 1 25544U 98067A 26138.19793205 .00006286 00000-0 12105-3 0 9990 2 25544 51.6325 88.5573 0007513 70.6653 289.5148 15.49256023567106 0 CXO 1 25867U 99040B 26140.28492096 .00000595 00000-0 00000-0 0 9992 2 25867 55.7802 117.3662 7885402 310.4951 359.8201 0.37805204 17218 ...Continue Reading

[TLELIST] Current TLEs

May 17th 2026 PDT

0 HST 1 20580U 90037B 26137.10641404 .00005213 00000-0 16467-3 0 9991 2 20580 28.4749 292.9379 0001916 142.7285 217.3444 15.30399936783807 0 ISS (ZARYA) 1 25544U 98067A 26137.03684517 .00005133 00000-0 10043-3 0 9996 2 25544 51.6321 94.3035 0007556 67.0843 293.0943 15.49238964566924 0 CXO 1 25867U 99040B 26137.63980620 .00000640 00000-0 00000-0 0 9993 2 25867 55.7295 117.4600 7892195 310.4750 359.8236 0.37807696 17216 ...Continue Reading

[TLELIST] Current TLEs

May 16th 2026 PDT

0 HST 1 20580U 90037B 26135.80219409 .00004599 00000-0 14449-3 0 9996 2 20580 28.4750 301.8457 0002071 129.2690 230.8090 15.30387000783603 0 ISS (ZARYA) 1 25544U 98067A 26136.13376888 .00005028 00000-0 98570-4 0 9990 2 25544 51.6318 98.7731 0007490 64.0316 296.1443 15.49230000566786 0 CXO 1 25867U 99040B 26137.63980620 .00000640 00000-0 00000-0 0 9993 2 25867 55.7295 117.4600 7892195 310.4750 359.8236 0.37807696 17216 ...Continue Reading

[TLELIST] Current TLEs

May 15th 2026 PDT

0 HST 1 20580U 90037B 26134.69359843 .00004465 00000-0 14011-3 0 9996 2 20580 28.4753 309.4175 0002090 119.7913 240.2891 15.30378185783439 0 ISS (ZARYA) 1 25544U 98067A 26135.16618096 .00004382 00000-0 87007-4 0 9997 2 25544 51.6313 103.5621 0007452 60.7339 299.4393 15.49219006566637 0 CXO 1 25867U 99040B 26137.63980620 .00000640 00000-0 00000-0 0 9993 2 25867 55.7295 117.4600 7892195 310.4750 359.8236 0.37807696 17216 ...Continue Reading

[TLELIST] Current TLEs

May 14th 2026 PDT

0 HST 1 20580U 90037B 26133.91105606 .00004775 00000-0 15035-3 0 9997 2 20580 28.4754 314.7628 0002132 112.2486 247.8336 15.30373445783310 0 ISS (ZARYA) 1 25544U 98067A 26134.19858747 .00005122 00000-0 10032-3 0 9994 2 25544 51.6312 108.3512 0007536 56.9254 303.2457 15.49211692566485 0 CXO 1 25867U 99040B 26134.99575802 .00000704 00000-0 00000-0 0 9992 2 25867 55.6591 117.5844 7896930 310.4386 359.9851 0.37808652 17195 ...Continue Reading

[TLELIST] Current TLEs

May 13th 2026 PDT

0 HST 1 20580U 90037B 26133.19372359 .00004351 00000-0 13638-3 0 9995 2 20580 28.4756 319.6625 0002153 105.4031 254.6803 15.30366798783202 0 ISS (ZARYA) 1 25544U 98067A 26133.16648102 .00004986 00000-0 97915-4 0 9995 2 25544 51.6312 113.4597 0007515 53.2822 306.8856 15.49201863566327 0 CXO 1 25867U 99040B 26134.99575802 .00000704 00000-0 00000-0 0 9992 2 25867 55.6591 117.5844 7896930 310.4386 359.9851 0.37808652 17195 ...Continue Reading

[TLELIST] Current TLEs

May 12th 2026 PDT

0 HST 1 20580U 90037B 26132.21553854 .00004520 00000-0 14199-3 0 9999 2 20580 28.4756 326.3439 0002185 96.7718 263.3127 15.30359319783059 0 ISS (ZARYA) 1 25544U 98067A 26132.19887560 .00004713 00000-0 93039-4 0 9991 2 25544 51.6312 118.2489 0007476 49.7974 310.3668 15.49191856566178 0 CXO 1 25867U 99040B 26134.99575802 .00000704 00000-0 00000-0 0 9992 2 25867 55.6591 117.5844 7896930 310.4386 359.9851 0.37808652 17195 ...Continue Reading

[TLELIST] Current TLEs

May 12th 2026 PDT

0 HST 1 20580U 90037B 26132.21553854 .00004520 00000-0 14199-3 0 9999 2 20580 28.4756 326.3439 0002185 96.7718 263.3127 15.30359319783059 0 ISS (ZARYA) 1 25544U 98067A 26132.19887560 .00004713 00000-0 93039-4 0 9991 2 25544 51.6312 118.2489 0007476 49.7974 310.3668 15.49191856566178 0 CXO 1 25867U 99040B 26134.99575802 .00000704 00000-0 00000-0 0 9992 2 25867 55.6591 117.5844 7896930 310.4386 359.9851 0.37808652 17195 ...Continue Reading

[TLELIST] Current TLEs

May 11th 2026 PDT

0 HST 1 20580U 90037B 26130.91128385 .00004942 00000-0 15600-3 0 9997 2 20580 28.4758 335.2524 0002203 85.6374 274.4473 15.30349034782858 0 ISS (ZARYA) 1 25544U 98067A 26131.16675675 .00005444 00000-0 10622-3 0 9997 2 25544 51.6310 123.3566 0007470 46.3627 313.7980 15.49181925566014 0 CXO 1 25867U 99040B 26132.35181578 .00000778 00000-0 00000-0 0 9994 2 25867 55.5870 117.7083 7898886 310.4213 0.0914 0.37804510 17184 ...Continue Reading

[TLELIST] Current TLEs

May 10th 2026 PDT

0 HST 1 20580U 90037B 26129.80266005 .00005313 00000-0 16829-3 0 9992 2 20580 28.4760 342.8246 0002190 75.4822 284.6017 15.30338732782687 0 ISS (ZARYA) 1 25544U 98067A 26130.19913920 .00006212 00000-0 12008-3 0 9991 2 25544 51.6310 128.1454 0007453 42.8467 317.3101 15.49169801565863 0 CXO 1 25867U 99040B 26132.35181578 .00000778 00000-0 00000-0 0 9994 2 25867 55.5870 117.7083 7898886 310.4213 0.0914 0.37804510 17184 ...Continue Reading
  • This mailing list is a public mailing list - anyone may join or leave, at any time.
  • This mailing list is announce-only.

International Space Station (ISS) / Hubble Space Telescope (HST) / Chandra X-Ray Observatory Orbital Data via EMAIL

Privacy Policy:

Private list